Regional Weather Roundup
Issued by NWS

Home | Current Version | Previous Version | Graphics & Text | Print | Product List | Glossary On
Versions: 1 2 3 4 5 6 7 8 9 10 11 12 13 14 15 16 17 18 19 20 21 22 23 24 25 26 27
000
ASUS45 KSLC 250110
RWRUT

UTAH REGIONAL WEATHER ROUNDUP
NATIONAL WEATHER SERVICE SALT LAKE CITY UT
700 PM MDT FRI MAR 24 2017

UTZ001>011-023>025-250200-

NORTHERN UTAH

CITY           SKY/WX    TMP DP  RH WIND       PRES   REMARKS
BRIGHAM CITY     N/A     53  29  39 CALM      30.08F
HILL AFB       CLOUDY    52  36  53 W3        30.07F
LOGAN          CLOUDY    54  32  43 S5        30.07S
OGDEN          CLOUDY    51  36  56 NW5       30.06F
SALT LAKE CITY CLOUDY    57  34  41 S10       30.05F
WENDOVER       MOCLDY    58  29  33 SE15      29.99
HEBER CITY     MOCLDY    52  34  50 W3        30.08S

$$

UTZ011>015-024>027-250200-

CENTRAL/NORTHEAST UTAH

CITY           SKY/WX    TMP DP  RH WIND       PRES   REMARKS
PROVO AIRPORT  CLOUDY    56  38  50 E5        30.09F
MOAB/CANYONLAN CLEAR     61  25  25 W9        30.09F
DELTA          MOCLDY    52  32  46 E7        30.08F
PRICE          PTCLDY    54  29  38 E5        30.13F
RICHFIELD      CLEAR     59  27  29 CALM      30.11S
ROOSEVELT      CLEAR     55  30  38 SE5       30.13F
VERNAL         CLEAR     54  31  41 S8        30.11F

$$

UTZ013>016-019>022-027-250200-

SOUTHERN UTAH

CITY           SKY/WX    TMP DP  RH WIND       PRES   REMARKS
BRYCE CANYON   CLEAR     50  24  36 SE16      30.20S
CEDAR CITY     CLEAR     55  24  30 SW15G23   30.11F
MILFORD        CLEAR     62  26  25 S15       30.07F
ST GEORGE      MOCLDY    68  28  22 CALM      30.09S
HANKSVILLE     PTCLDY    61  23  23 CALM      30.11F
KANAB          CLEAR     63  19  19 W2        30.18F
BLANDING       CLEAR     58  16  19 N8        30.20R

$$

REGIONAL REPORTS     COLORADO/ARIZONA

CITY           SKY/WX    TMP DP  RH WIND       PRES   REMARKS
CRAIG, CO      CLEAR     52  22  30 W7        30.11S
GRAND JUNCTION CLEAR     60  27  28 S5        30.10R
RIFLE, CO      CLEAR     58  25  28 SW7       30.11R
MONTROSE, CO   CLEAR     55  27  34 SE8       30.15R
CORTEZ, CO     CLEAR     58  25  28 N7        30.14R
COLORADO CITY    N/A     63  27  25 NW6       30.18S
PAGE, AZ       CLEAR     64  38  38 N8        30.12S
GRAND CANYON   CLEAR     54  23  30 SW7       30.23S
KINGMAN, AZ    CLEAR     66  12  12 SW16      30.13F
FLAGSTAFF, AZ  CLEAR     50  34  54 SW9       30.23S

$$

REGIONAL REPORTS    NEVADA/IDAHO/WYOMING

CITY           SKY/WX    TMP DP  RH WIND       PRES   REMARKS
LAS VEGAS, NV  MOSUNNY   78  20  11 SE8       29.99F
ELY, NY        MOCLDY    55  27  34 S10       30.06S
ELKO, NV       CLOUDY    51  34  52 W25G33    30.00R
POCATELLO, ID  CLOUDY    51  31  46 SW14G25   30.03S
BURLEY, ID     LGT RAIN  54  31  41 S8        29.98F
FORT BRIDGER,    N/A     51  30  45 NW6       30.14S
EVANSTON, WY   CLOUDY    45  30  55 W10       30.10F
ROCK SPRINGS,  CLEAR     50  25  37 SW6       30.10F
KEMMERER, WY     N/A     37  28  70 N7        30.13S WCI  32

$$




USA.gov is the U.S. government's official web portal to all federal, state and local government web resources and services.